Theta_e
311 313 312 310 309 302 301 304 307 308 309 312 313 314 316 317 319 320 320 320 318 316 315 320 320 317 322 328 323 322 331 333 331 328 329 322 325 321 323 326 327 329 327 324 322
312 310 311 312 310 308 304 301 301 303 304 306 307 309 311 312 313 315 317 319 320 319 313 313 319 321 325 326 321 327 332 332 325 325 327 324 322 322 324 325 327 328 327 326 325
314 312 310 310 310 309 307 304 301 301 301 301 302 303 304 305 305 307 310 313 317 319 318 314 317 322 324 324 322 322 331 327 324 323 321 321 321 320 323 325 326 327 328 326 326
315 314 312 310 310 309 309 307 307 301 301 301 301 301 302 302 305 310 312 311 313 318 319 316 322 324 323 325 323 325 323 323 323 324 323 324 320 322 322 326 323 323 324 325 326
315 315 314 312 310 310 310 310 307 304 302 301 306 308 308 309 305 314 317 317 316 317 319 317 322 324 323 325 324 326 325 323 322 324 325 325 326 326 326 325 323 322 322 321 323
313 314 315 313 311 309 310 311 310 306 303 302 307 310 310 310 306 305 315 316 318 317 318 318 323 324 325 326 326 327 326 327 326 327 328 329 330 326 329 329 328 327 326 324 321
311 313 315 315 313 310 309 311 310 309 304 303 307 310 310 309 306 305 305 312 316 319 320 320 321 324 324 325 324 325 327 327 326 327 328 328 330 329 329 330 329 329 327 326 324
309 311 313 314 314 312 309 311 311 309 308 302 308 310 310 308 307 305 306 306 313 318 319 321 322 323 324 322 323 326 325 322 321 324 325 326 322 323 326 327 327 328 328 327 327
306 309 311 313 314 313 311 309 311 310 305 304 309 310 311 309 309 305 305 307 312 318 319 320 320 321 321 324 325 323 323 323 321 323 324 327 324 323 325 326 326 326 327 326 326
306 307 310 313 314 314 312 309 310 310 305 308 310 311 309 311 309 308 305 306 314 317 318 320 320 321 321 322 322 321 322 321 323 322 321 324 325 324 323 323 322 322 322 323 323
306 306 309 311 313 314 313 310 311 309 307 308 308 309 309 309 309 309 307 311 315 318 319 320 320 320 319 320 320 318 320 320 321 319 319 321 321 320 319 319 320 322 323 323 323
305 307 308 310 312 314 314 310 310 308 308 307 308 309 308 309 310 308 309 313 315 316 317 319 319 317 317 317 319 319 320 321 319 318 318 318 318 317 317 317 317 318 319 319 319
305 306 307 308 311 312 314 311 310 309 308 307 308 309 309 309 310 310 310 312 313 314 316 316 314 314 316 318 319 319 319 318 318 316 316 316 316 314 314 314 315 316 316 317 317
304 305 306 307 308 309 312 313 310 309 309 307 308 308 309 309 309 309 309 312 312 314 314 315 312 313 315 316 317 318 316 317 317 316 316 315 316 313 313 312 313 314 315 316 316
304 304 304 306 308 309 310 311 309 307 313 308 307 307 309 309 309 310 308 312 313 313 313 313 312 313 315 315 315 314 314 314 315 316 316 315 317 313 312 312 313 312 313 314 314
302 303 303 305 306 308 309 311 307 306 311 307 306 308 309 309 309 310 311 311 310 311 311 310 309 312 313 314 315 314 314 314 315 315 315 313 312 311 311 311 312 311 311 312 313
300 302 303 305 306 308 308 307 307 308 303 306 308 308 309 310 309 310 311 311 312 312 312 312 312 312 311 313 314 314 314 316 315 316 314 311 313 313 312 312 312 312 313 312 313
298 300 301 302 306 306 308 307 310 307 305 304 306 308 308 309 309 310 310 311 311 310 310 311 312 312 312 311 312 315 314 312 311 312 310 312 313 312 313 313 313 313 314 313 313
298 300 300 301 302 307 307 309 311 308 305 306 306 307 308 309 309 309 310 310 310 310 307 309 308 310 312 311 310 313 314 311 313 310 315 313 313 313 313 313 313 313 311 311 312
299 300 300 300 301 305 303 310 308 306 305 306 307 307 308 309 309 309 310 309 310 310 308 309 310 308 310 312 312 312 311 313 313 312 312 310 311 312 312 311 311 312 312 310 310
298 300 299 299 300 301 304 305 308 305 304 306 307 307 308 308 308 310 310 308 309 309 309 307 307 309 310 313 312 314 314 313 312 312 311 310 310 311 311 312 311 310 309 309 310
300 300 300 299 302 300 303 303 301 305 305 305 306 307 308 308 308 308 309 308 308 309 310 309 308 310 309 310 310 312 312 313 314 312 313 314 314 312 312 311 310 310 309 308 308
299 299 299 300 301 302 302 302 304 303 304 305 305 306 306 308 308 308 307 305 307 310 310 308 311 310 308 307 307 311 311 312 313 312 310 314 312 310 309 309 309 308 308 309 310
298 298 298 299 300 303 304 304 304 302 304 304 305 305 305 307 306 307 306 304 305 309 309 308 310 311 311 307 307 310 310 310 312 313 312 311 310 310 310 309 309 309 310 310 310
297 299 299 302 301 302 303 304 305 305 303 305 305 305 306 307 306 305 306 305 304 306 307 309 309 309 309 307 307 308 308 309 311 311 310 309 308 309 310 310 310 310 310 310 309
297 299 299 301 301 303 304 304 304 304 304 305 306 305 306 306 306 305 305 306 306 305 307 307 308 306 306 306 306 307 308 310 309 310 309 310 310 310 310 310 311 310 309 308 309
297 298 299 301 301 303 303 302 305 303 303 304 305 305 306 306 305 305 304 306 306 306 307 308 308 308 308 306 307 308 307 306 308 309 310 311 311 311 311 311 309 308 308 308 309
Wind_Speed
19 19 17 16 15 18 22 22 21 18 16 16 14 13 12 12 12 12 11 8 8 8 8 2 1 6 6 5 4 5 5 7 5 6 3 7 7 4 4 4 6 6 3 5 8
20 20 19 17 16 15 17 21 22 19 17 16 15 14 14 13 12 15 12 11 11 9 8 11 8 3 5 5 5 7 6 7 2 3 2 7 5 6 5 6 9 9 12 9 9
25 22 21 19 18 16 15 17 19 19 18 17 15 13 13 11 10 8 14 18 17 13 8 7 8 7 7 5 7 5 11 6 2 1 1 3 3 2 5 6 9 9 10 14 13
28 25 23 21 19 17 15 14 15 15 15 15 13 11 10 7 4 3 5 10 13 15 12 7 7 6 7 8 7 6 8 5 3 3 3 3 2 5 9 7 3 4 7 12 17
27 28 27 24 22 19 16 15 14 14 14 14 12 8 9 6 9 5 1 4 6 13 13 11 9 7 9 7 7 9 8 5 5 4 2 3 7 9 18 17 13 12 11 13 16
27 29 29 28 24 21 19 17 14 14 14 14 13 11 12 8 9 11 8 1 2 8 12 13 7 7 5 3 11 5 11 7 5 7 7 8 16 3 23 15 16 17 17 16 16
31 28 29 29 27 23 21 19 16 13 14 15 16 15 14 16 6 10 11 10 4 7 9 13 8 9 7 4 4 2 6 7 10 9 8 8 15 16 34 19 20 21 19 19 19
35 31 30 31 30 27 23 21 18 14 12 15 17 17 11 14 22 10 8 13 8 7 7 9 9 6 3 6 4 4 4 8 5 11 8 14 21 21 22 18 22 22 22 22 23
37 34 31 32 32 30 26 23 19 15 14 17 18 15 8 11 18 18 14 10 13 9 9 11 12 6 7 7 5 6 8 12 7 3 3 13 11 10 8 14 20 21 22 21 20
35 35 34 30 33 32 29 24 20 18 18 16 16 9 13 12 13 22 22 13 10 11 9 10 8 8 5 10 11 11 10 8 10 2 4 12 17 15 23 17 16 16 16 17 19
32 36 34 33 31 34 32 28 22 11 28 12 12 8 4 18 15 15 21 14 10 13 9 14 10 13 18 17 11 4 7 10 4 4 8 17 19 16 21 24 25 28 27 27 27
35 33 36 36 30 37 43 43 38 15 11 24 12 25 5 19 7 12 20 15 15 14 15 7 17 14 7 13 15 11 8 10 9 10 9 18 26 23 27 33 31 31 32 33 34
31 34 34 37 34 29 47 47 32 21 6 18 18 19 17 13 9 18 26 17 17 15 18 17 2 15 11 10 15 15 16 14 14 11 16 19 24 19 11 18 29 29 35 38 37
34 32 32 33 31 36 37 45 41 31 4 8 17 14 26 13 8 13 31 17 9 19 16 14 13 5 14 19 15 15 9 12 12 9 6 2 10 17 15 15 16 28 28 29 27
33 31 33 36 32 39 30 36 38 28 10 16 14 11 23 25 16 15 32 15 13 13 11 11 13 16 11 13 13 8 6 7 10 11 13 16 9 7 6 10 15 22 22 23 24
38 34 32 32 38 29 36 43 38 5 8 10 13 18 23 29 10 16 22 16 9 9 9 8 1 13 10 10 16 9 7 3 4 5 8 14 11 19 15 13 10 11 15 16 16
33 34 36 36 35 31 32 42 9 10 11 10 9 18 26 14 17 15 20 22 13 11 15 10 11 4 8 10 9 11 13 4 4 6 9 1 11 21 6 9 10 13 18 16 15
34 32 36 38 33 42 44 14 16 13 10 8 13 21 20 18 18 17 20 20 21 14 12 12 9 17 14 12 10 22 18 6 8 7 6 4 15 11 2 9 19 17 19 18 22
37 35 37 37 40 34 34 19 16 9 13 18 21 21 12 19 13 18 22 23 21 24 15 12 10 11 13 11 15 16 17 12 4 1 4 9 16 20 18 17 19 25 16 14 18
34 34 38 38 40 41 10 25 8 12 19 22 14 18 18 23 14 19 19 19 22 28 22 6 4 1 13 15 15 12 11 7 8 7 9 13 20 19 8 17 17 18 20 16 18
34 16 30 42 40 24 10 7 8 24 25 19 13 13 17 22 22 23 20 8 30 25 25 8 4 5 8 13 18 10 9 8 9 13 6 10 14 14 15 12 11 11 16 22 31
27 10 18 41 13 3 13 7 5 18 29 10 11 16 23 28 23 22 24 15 25 27 28 15 6 6 11 5 15 21 21 19 9 11 13 17 24 12 20 21 25 27 26 24 30
13 12 20 40 13 9 7 8 6 13 24 14 14 14 15 24 14 19 21 11 19 23 22 13 7 6 4 5 3 13 19 22 21 13 18 16 17 13 18 22 29 29 31 33 36
11 6 9 36 23 9 9 9 14 19 16 16 9 13 15 17 12 22 14 8 20 25 18 24 10 15 16 5 11 14 18 22 21 16 24 20 29 32 32 30 25 32 32 38 43
14 6 8 3 10 17 7 11 10 9 14 27 14 21 17 11 18 11 18 8 14 22 19 14 12 20 22 15 6 8 15 24 26 28 19 26 23 31 34 25 30 38 44 44 46
15 4 3 2 15 13 12 13 12 6 9 14 13 23 24 16 18 16 22 14 13 16 20 12 6 13 13 19 15 14 21 17 23 25 24 28 27 32 43 46 41 41 42 38 42
27 14 5 8 17 16 13 9 7 11 7 16 16 22 22 18 30 21 26 27 17 20 23 16 10 6 6 9 11 12 31 24 23 24 21 22 29 30 27 26 38 40 33 38 45
Wind_Direction
236 243 247 241 235 232 231 232 237 238 238 241 244 247 249 252 258 263 270 259 261 251 241 214 304 239 218 209 171 165 231 241 225 180 207 163 195 182 205 198 213 210 213 186 181
236 237 240 245 242 236 231 231 233 238 239 239 243 247 255 259 263 260 253 252 255 251 242 247 254 216 198 192 181 210 232 228 203 224 267 182 223 167 182 195 227 230 226 217 198
234 235 236 237 243 238 236 232 229 230 235 240 241 242 250 263 287 255 240 240 239 246 245 234 224 201 204 183 190 195 240 195 131 207 184 202 248 238 198 214 232 237 230 228 221
237 237 237 236 235 236 233 230 229 227 226 229 232 231 234 228 234 200 247 260 235 230 234 213 191 185 211 202 190 204 228 192 172 175 182 189 289 266 236 247 234 257 248 239 229
239 235 234 235 232 231 227 231 228 226 225 221 218 213 199 210 234 190 215 19 203 211 214 204 191 188 212 204 173 221 220 203 210 217 242 249 249 267 262 258 271 265 260 256 247
240 236 232 230 229 229 224 222 227 220 218 212 205 203 202 219 240 232 214 259 123 195 202 196 205 193 197 205 213 197 234 223 220 230 260 262 261 233 260 254 254 260 263 257 250
239 238 231 228 228 226 222 217 217 224 212 206 197 207 215 230 222 235 223 213 192 186 191 198 196 191 181 173 166 187 247 222 225 224 240 229 252 232 257 258 259 262 262 257 257
240 236 233 226 224 222 220 217 213 207 214 203 199 206 233 242 233 220 225 202 200 200 184 189 182 177 170 129 115 195 221 246 174 215 233 203 257 249 263 253 250 254 251 249 252
240 234 232 227 222 219 215 212 209 206 196 198 201 200 234 235 226 219 226 201 196 200 188 188 191 192 164 194 203 199 236 225 239 228 284 213 264 254 275 253 254 258 259 256 254
236 233 226 226 221 215 212 204 203 198 187 196 206 201 230 221 218 212 211 208 178 173 179 193 188 194 204 196 218 224 227 224 236 132 242 255 256 267 274 277 278 274 265 265 264
233 230 224 222 221 213 203 190 179 187 189 185 197 202 301 207 192 206 197 177 164 184 190 193 203 210 211 218 248 257 239 244 232 245 303 270 274 271 272 274 266 262 263 264 265
231 228 222 218 216 219 206 190 191 183 177 205 199 201 190 187 175 196 181 177 185 196 190 191 223 219 230 220 226 228 232 238 258 272 286 287 282 278 267 261 259 260 263 261 262
227 222 218 217 214 212 195 200 189 178 165 211 206 204 184 178 202 195 178 190 193 195 201 204 194 216 212 209 216 227 235 246 260 282 272 290 285 265 250 250 251 250 249 253 251
225 221 218 213 213 215 217 212 200 188 201 182 198 225 196 188 234 210 186 179 191 203 198 222 203 164 200 220 214 230 228 245 255 272 268 62 293 279 275 261 243 247 243 251 257
222 215 212 211 205 209 214 198 176 180 229 163 173 189 180 182 143 188 185 193 194 178 187 195 195 193 200 206 198 219 180 232 246 250 274 260 269 254 262 261 248 251 249 248 254
217 222 219 215 215 213 205 193 171 196 220 176 157 175 165 195 174 149 177 190 186 200 224 222 166 205 199 193 196 157 149 138 194 234 256 226 225 265 247 255 268 251 248 253 256
229 215 209 209 211 203 198 170 187 211 150 171 172 172 177 172 174 175 178 188 177 184 203 195 204 167 165 171 192 185 168 176 209 215 246 206 218 250 297 286 248 257 274 276 275
224 220 213 220 199 205 181 193 224 156 179 160 168 166 185 159 191 186 183 196 213 205 173 196 206 199 182 194 182 198 186 195 215 219 268 199 230 253 250 231 251 271 283 286 285
213 214 215 212 213 202 186 211 208 171 171 159 148 167 177 182 166 181 198 205 201 201 200 200 226 187 194 185 173 193 218 211 311 134 280 238 257 272 253 247 254 270 287 291 295
208 215 216 216 212 206 213 213 183 171 155 156 155 178 178 181 165 182 187 210 208 206 217 186 193 267 181 199 213 193 169 190 217 230 238 249 256 253 279 281 283 285 300 297 301
206 215 219 213 213 221 218 228 187 182 160 175 181 171 191 177 188 184 191 198 198 190 201 182 222 144 172 201 194 190 187 220 212 226 242 267 259 256 271 275 286 300 288 293 298
193 211 199 201 195 193 222 166 262 182 179 179 186 164 184 183 188 188 200 211 198 181 190 194 224 191 198 173 228 219 210 200 214 214 232 249 263 278 286 289 291 289 294 301 300
199 191 203 196 213 209 148 193 213 178 187 180 180 185 179 179 182 196 199 181 185 175 177 160 190 178 195 234 193 221 218 225 229 247 243 234 264 280 286 287 286 293 299 292 290
202 165 227 199 214 198 164 170 184 193 191 196 167 160 155 181 185 193 181 166 181 184 179 165 200 214 220 140 178 211 216 219 220 229 242 240 259 278 279 276 298 294 291 287 287
183 228 213 161 177 177 198 155 169 153 210 201 198 178 164 168 183 184 177 153 177 188 181 188 226 225 245 254 203 214 225 222 221 230 232 255 248 264 271 287 284 289 289 292 295
183 184 143 203 170 151 167 204 190 159 157 203 179 191 190 186 189 177 171 175 174 181 188 198 231 215 242 237 239 251 244 228 225 235 242 250 256 255 274 279 281 284 287 297 298
194 191 170 172 176 180 187 173 172 167 185 204 197 186 197 197 194 189 167 170 157 162 184 183 182 164 226 211 214 250 243 231 232 235 231 238 247 259 262 272 278 286 299 295 297